Location: Lussas
(44.6119°N, 4.4726°E)
Time: 18:02:51
(UTC+00:00)

PSLV R/B - Visible Passes

Search period start: 22 June 2021 00:00
Search period end: 02 July 2021 00:00
Orbit: 567 x 598 km, 98.2° (Epoch: 21 June)

Date Brightness Start Highest point End Pass type
(mag) Time Alt. Az. Time Alt. Az. Time Alt. Az.
26 Jun 7.0 20:02:45 10° NNW 20:05:33 18° WNW 20:08:20 10° WSW visible
27 Jun 7.1 20:08:39 10° NNW 20:11:10 16° WNW 20:13:41 10° WSW visible
28 Jun 7.2 20:14:36 10° NNW 20:16:48 14° WNW 20:18:59 10° W visible
29 Jun 7.3 20:20:38 10° NW 20:22:25 13° WNW 20:24:12 10° W visible
30 Jun 7.5 20:26:49 10° NW 20:28:02 11° WNW 20:29:15 10° WNW visible
